Tracking 20942 objects as of 13-Jul-2020
HD Live streaming from Space Station
objects crossing your sky now

THOR ABLESTAR DEB

Track THOR ABLESTAR DEB now!
10-day predictions


NORAD ID: 20174
Int'l Code: 1961-015MK
Perigee: 797.5 km
Apogee: 1,537.8 km
Inclination: 67.1 °
Period: 108.6 minutes
Semi major axis: 7538 km
RCS: 0.0128 m2 (small)
Launch date: June 29, 1961
Source: United States (US)
Launch site: AIR FORCE EASTERN TEST RANGE (AFETR)

Note: This is SATELLITE DEBRIS
aabbcc
Your satellite tracking list
Your tracking list is empty




NASA's NSSDC Master Catalog

Two Line Element Set (TLE):
1 20174U 61015MK  20194.71213278 +.00000055 +00000-0 +13794-3 0  9991
2 20174 067.0629 315.6639 0491002 151.5363 279.1325 13.26368646394403
Source of the keplerian elements: AFSPC